Theta_e
318 313 312 314 316 317 318 317 317 318 319 320 319 319 318 321 322 321 323 323 323 324 323 329 346 348 352 352 351 350 350 349 348 348 349 348 345 345 350 349 346 344 335 318
317 314 315 316 317 318 317 317 318 319 320 320 318 319 319 320 322 323 323 324 324 324 324 325 348 348 349 351 351 350 349 348 345 345 346 348 344 348 346 345 343 339 320 318
317 318 319 319 318 319 318 318 318 319 318 317 318 318 318 320 321 323 323 323 323 323 325 326 335 343 346 348 351 350 347 347 344 345 348 344 347 348 344 342 340 331 321 319
318 319 320 319 320 320 318 319 319 319 318 315 319 317 316 318 319 319 322 323 323 323 323 325 338 346 347 349 349 340 343 345 344 341 347 340 348 348 346 341 336 330 325 320
320 319 319 320 320 320 320 320 319 319 318 318 318 315 316 318 318 319 320 322 322 323 323 324 331 345 349 350 350 344 342 343 342 341 337 333 343 348 345 339 333 330 326 320
318 320 319 319 320 320 320 320 319 318 316 317 317 318 318 317 318 319 320 326 326 323 323 323 328 336 345 348 350 345 343 344 340 340 335 335 336 348 342 337 332 330 325 320
319 319 319 320 320 320 319 317 319 318 316 317 317 318 318 318 319 320 321 328 328 329 330 330 328 339 344 347 348 344 342 343 340 338 332 337 340 346 341 336 337 335 329 320
320 320 319 317 316 315 321 322 322 319 320 319 318 319 318 323 325 326 324 328 329 329 329 329 332 345 346 348 348 347 347 346 345 341 339 340 347 347 343 340 337 331 334 327
318 319 316 316 313 314 318 322 322 323 321 321 320 320 321 327 326 327 324 323 321 322 327 328 331 332 333 334 335 338 346 347 346 347 346 347 347 348 343 335 333 332 331 332
312 312 314 313 313 313 313 313 323 322 323 323 322 322 326 327 325 325 324 322 320 317 316 327 332 333 333 336 338 335 329 330 332 335 344 343 346 346 342 337 334 335 334 336
310 312 311 311 312 310 310 310 312 319 322 324 323 321 327 324 322 321 320 320 321 320 316 322 327 331 331 332 334 337 335 336 336 335 329 339 342 339 339 335 337 331 332 337
311 310 309 310 310 311 311 310 309 315 317 318 322 321 327 323 322 321 319 317 315 318 319 316 327 325 330 330 330 333 334 335 333 337 340 341 342 344 341 340 338 334 332 332
309 307 306 306 308 310 310 309 310 310 313 314 315 317 324 324 322 320 319 316 314 315 315 315 319 322 324 329 329 330 333 336 337 338 331 331 331 330 339 341 338 338 336 338
307 306 307 306 307 307 309 309 309 309 309 311 311 311 312 323 321 320 320 318 316 315 315 315 316 316 322 325 326 327 329 330 336 338 337 335 337 330 336 331 333 337 341 340
306 307 308 309 310 308 309 309 308 308 308 307 307 307 307 312 320 319 316 318 318 316 314 315 317 312 315 324 325 324 325 327 332 336 340 340 334 329 326 328 340 338 339 338
310 309 309 310 310 308 308 308 309 309 309 308 308 306 306 308 314 315 316 316 315 315 312 313 317 311 311 315 320 322 323 323 328 331 337 339 334 336 336 341 342 341 341 340
310 308 309 309 308 308 307 308 309 308 308 308 308 307 308 307 308 311 312 315 314 312 311 311 312 312 311 311 312 316 321 323 326 328 331 334 334 328 328 323 330 336 337 339
307 307 307 306 306 307 307 308 310 309 309 311 313 311 310 311 311 310 312 311 312 311 311 310 310 310 310 312 312 313 319 324 324 326 325 331 333 338 334 335 334 337 337 337
307 307 307 304 307 307 308 310 311 310 310 310 310 311 311 311 312 311 312 312 312 311 311 311 312 311 311 309 312 311 313 322 323 325 324 323 330 333 338 337 336 335 334 333
308 307 307 307 305 305 310 310 308 309 309 309 309 309 309 309 310 311 311 311 311 311 311 311 311 310 310 312 312 314 316 318 322 323 324 323 321 330 333 335 334 334 333 333
309 309 307 307 311 309 311 309 308 310 308 309 309 309 309 308 309 310 310 311 311 310 310 310 309 310 310 309 311 312 316 317 316 321 323 322 318 325 329 331 332 333 333 333
310 308 307 309 310 312 310 309 310 308 308 309 308 306 306 306 306 307 308 309 310 310 310 310 310 310 311 310 309 310 311 314 314 316 319 319 319 323 325 329 330 331 331 332
309 310 308 309 309 309 307 307 307 306 305 305 305 305 304 304 305 305 306 306 309 309 310 309 309 309 309 309 309 309 310 313 314 317 317 317 319 322 322 328 329 330 330 331
307 308 306 309 309 308 306 306 305 304 303 304 303 304 304 305 304 305 305 306 307 308 309 309 309 309 308 309 309 310 309 315 314 314 316 318 319 320 322 323 325 328 329 330
306 307 308 308 308 305 306 304 304 303 303 304 303 303 303 303 303 304 305 306 306 308 308 309 308 308 308 308 308 309 310 314 313 314 314 317 317 317 318 320 321 323 322 324
309 308 306 305 306 305 305 304 303 303 304 304 303 303 302 303 304 305 305 305 306 307 308 308 307 309 309 309 309 310 310 309 309 311 313 316 316 316 316 316 317 317 317 317
Wind_Speed
16 4 7 11 10 11 13 10 10 9 10 3 8 8 11 23 27 18 18 22 26 38 37 31 36 37 38 34 34 34 31 27 30 33 34 30 27 27 22 25 22 20 19 21
7 10 12 13 14 16 17 15 11 9 13 8 9 11 10 7 6 13 15 19 27 26 37 38 43 40 38 38 38 33 32 32 31 30 35 31 29 25 24 23 20 20 19 22
10 11 17 17 14 13 10 8 8 8 9 10 6 10 10 10 12 18 19 26 30 29 21 31 44 41 40 40 41 37 37 36 30 31 29 32 28 28 27 25 23 21 18 22
11 15 18 17 14 13 10 9 10 9 8 7 4 12 9 8 11 9 20 28 34 36 32 18 30 47 49 48 45 38 41 41 37 33 36 36 31 36 36 30 25 22 19 22
14 12 13 16 15 14 11 10 12 10 10 3 5 4 6 8 9 11 15 30 41 39 38 32 25 43 50 50 51 46 44 44 42 41 37 38 40 38 36 29 24 22 21 24
14 24 13 15 20 19 15 9 11 5 3 9 5 8 11 6 9 9 12 2 14 47 47 38 27 35 48 50 51 49 50 51 48 46 39 40 45 44 42 33 24 18 20 25
11 17 12 18 13 14 13 5 3 4 4 8 9 11 10 9 12 12 8 6 10 16 18 12 7 27 46 53 54 53 56 56 54 52 48 43 50 46 45 38 21 11 19 29
4 7 5 15 11 10 9 2 2 9 6 9 11 17 8 9 19 31 16 14 12 9 13 17 16 12 24 26 21 22 28 35 43 50 47 49 50 49 49 47 32 20 29 27
5 4 11 10 14 7 7 5 6 2 6 3 3 8 7 19 21 25 28 36 42 38 36 15 14 16 14 3 9 21 23 20 23 24 34 44 50 53 48 42 34 44 38 28
8 6 7 12 12 7 11 11 5 5 4 7 3 4 2 10 14 15 18 26 39 45 48 44 16 25 27 24 3 10 9 35 37 27 33 30 43 50 50 39 37 35 44 40
6 2 6 8 7 15 13 7 5 3 6 3 2 5 5 7 7 13 16 28 33 36 43 40 36 27 22 28 25 5 9 11 19 26 32 36 40 48 50 40 42 38 43 41
3 2 3 11 10 15 13 13 7 2 6 3 1 5 5 8 8 14 15 22 30 30 36 40 28 34 30 25 25 24 10 7 18 30 33 40 35 51 55 50 46 41 48 39
4 3 5 7 6 4 5 13 9 3 2 3 2 6 6 10 10 15 17 21 22 27 21 33 28 31 30 29 28 18 25 21 11 18 31 37 44 34 38 47 46 49 45 40
6 2 3 4 9 13 14 16 15 4 1 5 5 11 11 5 6 6 2 8 11 11 24 30 28 32 29 27 25 26 28 30 23 13 36 39 36 35 51 49 53 47 41 42
4 2 6 9 15 12 16 16 15 12 12 8 8 10 11 4 7 11 20 21 24 21 21 24 18 33 23 25 23 25 26 29 27 25 27 38 37 21 38 39 49 47 47 52
2 3 5 5 15 13 13 16 13 13 13 11 14 12 12 18 13 14 17 16 17 22 15 13 19 19 23 24 25 21 23 25 29 22 12 16 27 29 25 25 38 44 44 44
8 5 2 5 8 12 9 7 12 11 11 7 10 8 7 10 12 10 16 19 23 22 23 10 7 17 21 19 20 22 22 20 21 24 10 8 5 5 21 14 22 22 31 45
6 4 3 5 5 5 6 9 10 10 8 12 13 15 13 17 31 15 18 10 12 18 17 11 7 10 17 21 22 21 17 16 14 19 19 7 5 6 12 19 24 22 25 31
10 4 3 3 4 9 7 11 10 4 7 12 12 15 23 29 26 23 25 18 15 10 9 7 4 1 7 13 18 23 20 16 13 15 17 13 6 3 12 15 18 21 23 27
10 8 5 2 1 4 1 14 21 10 5 14 15 15 19 23 8 4 29 22 19 10 6 3 3 3 9 8 13 16 20 17 12 11 17 18 13 9 10 16 19 20 19 23
3 3 2 2 3 6 7 18 19 2 5 16 17 16 17 7 13 26 25 25 19 18 15 10 9 9 6 8 13 15 15 19 21 15 17 17 16 10 13 14 15 18 19 20
1 1 2 1 3 5 13 6 2 8 22 18 19 19 22 24 28 32 30 25 22 24 25 15 12 7 6 10 9 18 19 21 22 20 19 18 15 11 11 15 16 17 18 21
2 1 2 1 4 15 11 6 7 15 20 23 25 26 26 28 28 28 31 30 25 24 27 22 20 17 15 12 14 16 18 18 17 15 17 20 14 10 10 6 9 14 17 20
7 12 2 2 3 8 22 12 23 25 24 26 28 29 30 29 31 32 28 30 28 25 23 24 17 20 22 18 15 18 20 15 14 15 17 11 9 11 10 6 5 7 11 14
8 9 5 5 7 23 1 24 26 29 26 28 29 30 30 33 35 32 32 28 30 26 24 21 23 23 22 22 22 19 18 13 13 12 16 16 11 5 4 5 2 2 3 4
3 2 1 4 14 13 21 29 26 26 28 30 31 33 34 31 32 29 29 29 27 25 21 19 20 21 21 18 18 21 14 16 17 11 15 18 14 8 6 7 11 14 16 19
Wind_Direction
228 211 240 233 224 244 265 265 273 280 279 277 273 290 260 246 228 213 237 272 267 238 243 227 200 196 193 195 196 197 203 210 211 209 205 204 203 200 208 206 211 228 228 192
252 219 237 239 233 230 241 255 272 281 284 281 296 291 286 297 264 220 243 276 283 263 241 228 190 196 196 195 199 197 207 211 212 208 207 208 193 204 210 215 226 239 209 192
226 244 221 236 247 251 251 238 252 254 287 296 328 292 294 287 282 283 272 267 275 283 279 233 206 199 199 202 205 205 205 210 200 207 202 201 200 205 210 218 230 220 211 197
238 246 255 259 240 232 234 245 271 270 248 247 209 282 289 278 268 269 260 266 271 273 275 253 206 196 199 203 203 206 205 200 200 199 195 198 201 205 214 219 216 216 217 204
268 273 275 276 272 275 253 245 249 245 264 293 283 261 262 277 282 263 246 247 254 262 260 262 217 209 205 204 200 204 210 202 200 198 200 199 199 204 212 211 215 219 221 207
273 280 268 279 288 288 297 280 248 253 232 262 233 242 263 257 256 277 285 346 303 246 241 243 228 218 210 212 205 207 209 206 207 207 214 212 200 198 199 199 199 219 228 213
271 256 272 323 309 309 288 318 287 302 267 252 215 248 260 263 272 259 265 108 94 59 75 77 222 200 217 212 211 210 213 210 210 216 214 204 196 194 197 187 182 232 243 226
325 293 15 358 17 335 314 21 272 236 229 252 233 245 253 9 355 13 235 150 96 90 49 63 64 123 178 186 190 194 208 209 207 205 205 202 193 193 202 198 201 225 235 232
342 267 335 353 360 355 324 327 300 12 318 288 229 318 305 27 19 18 30 36 29 20 357 22 56 76 66 165 235 241 226 209 230 226 202 191 198 201 203 208 211 197 211 212
15 317 321 351 338 326 10 328 357 353 325 271 260 249 281 29 35 26 14 18 17 18 11 6 42 55 54 59 36 224 228 242 250 268 254 211 209 211 214 213 207 219 203 207
32 346 338 2 7 329 332 330 319 199 217 241 332 284 127 99 69 71 33 15 13 7 0 360 11 40 43 53 50 27 214 232 248 246 216 226 231 230 216 214 207 217 215 204
49 291 302 305 306 286 271 279 275 221 281 300 161 264 55 84 52 47 45 43 16 355 5 345 347 19 36 39 40 43 30 316 241 227 212 206 227 226 225 210 211 221 209 219
3 348 340 325 307 7 28 337 322 322 21 276 245 270 193 112 79 58 31 12 25 2 358 329 356 357 5 35 37 27 26 26 355 248 204 216 236 258 225 221 223 219 219 218
77 25 222 244 280 289 304 318 315 316 304 276 272 311 318 77 101 118 250 231 263 252 298 316 350 341 357 358 15 5 358 7 25 1 217 214 219 235 216 224 220 226 219 215
102 250 293 301 311 311 317 312 316 325 316 297 283 292 301 290 200 227 259 243 215 233 265 258 299 335 353 9 12 9 359 -0 8 30 202 217 217 219 216 229 223 224 222 213
59 260 297 310 306 303 293 300 297 285 281 292 311 267 274 284 257 219 242 224 225 217 218 227 214 315 343 4 8 8 4 351 2 16 25 208 218 249 235 225 225 219 223 217
172 179 206 261 280 302 301 287 303 320 309 291 305 288 330 336 319 278 233 219 231 223 225 200 241 268 302 334 348 352 355 344 352 359 8 54 181 258 226 209 228 216 229 220
231 249 231 262 313 294 252 297 320 265 303 16 16 1 359 356 333 15 20 22 81 116 153 154 190 252 268 286 328 330 339 341 346 349 1 326 24 217 204 206 210 217 222 227
195 202 265 191 239 268 303 48 25 92 309 9 2 350 358 352 346 31 12 32 38 69 112 136 144 67 319 312 308 319 309 330 329 344 325 350 286 233 224 213 206 211 221 228
184 192 179 289 246 261 73 7 358 294 228 8 0 349 346 347 357 322 340 335 340 328 320 316 321 310 322 274 305 317 303 309 318 340 319 309 333 244 224 229 231 231 239 245
351 340 129 289 217 259 33 348 343 266 291 342 336 329 332 326 313 314 320 313 309 310 319 292 277 275 251 316 278 313 308 303 295 297 308 308 312 302 240 232 230 237 243 248
297 332 227 263 221 262 9 319 353 312 321 327 327 326 320 311 304 293 293 295 298 287 299 299 314 302 310 280 302 282 304 298 298 289 290 300 308 296 297 247 236 242 243 250
40 139 231 200 253 322 27 345 327 336 321 317 318 310 305 302 298 294 294 290 289 283 278 286 282 286 274 287 296 283 297 291 297 284 292 296 301 307 305 296 246 239 244 245
335 335 230 282 254 3 330 330 329 325 317 314 310 305 301 294 296 293 284 287 286 280 276 261 276 273 265 258 274 281 277 275 272 283 281 292 308 321 324 347 299 257 249 242
259 295 326 289 318 340 165 323 317 314 314 313 310 308 300 298 293 289 287 276 276 274 261 263 257 266 271 262 265 284 276 267 281 284 268 266 271 288 295 326 2 122 119 267
135 161 228 251 316 281 286 310 316 316 314 316 311 307 310 301 296 290 283 276 273 271 268 261 259 277 266 269 264 268 273 279 279 294 261 243 253 240 204 150 133 114 104 99